Home > Weather > Ojinaga > Past weeks

Flag for Mexico Weather for the Past 2 Weeks in Ojinaga, Chihuahua, Mexico

Now
72 °F

Sunny.


Feels Like: 73 °F
Forecast: 32 / 77 °F
Wind: 18 mph from West

Location: Marfa Municipal Airport

Current Time: Feb 11, 2016 at 4:41:58 PM

Latest Report: Feb 11, 2016 at 3:56 PM


Visibility: 10 mi

Pressure: 30.17 "Hg (27.54 "Hg at 788m altitude)

Humidity: 10%

Dew point: 13 °F

Location of OjinagaLocation

Historic Weather in Ojinaga — Graph

°F

Ojinaga Temperature Yesterday

Maximum temperature yesterday: 70 °F (at 2:56 PM)
Minimum temperature yesterday: 22 °F (at 6:56 AM)
Average temperature yesterday: 45 °F

High & Low Weather Summary for the Past Weeks

 TemperatureHumidityPressure
High73 °F (Feb 1, 1:56 PM)92% (Jan 28, 4:56 AM)30.53 "Hg (Jan 28, 4:56 AM)
Low9 °F (Feb 4, 5:56 AM)6% (Feb 7, 12:56 PM)29.46 "Hg (Feb 1, 1:56 PM)
Average40 °F40%30.19 "Hg
* Reported Jan 27 1:56 PM — Feb 11 1:56 PM, Ojinaga, Weather by CustomWeather, © 2016

Note: Actual official high and low records may vary slightly from our data, if they occured in-between our weather recording intervals... More about our weather records

Advertising

Ojinaga Weather History for the Previous 24 Hours

 ConditionsComfort  
Time TempWeatherWind HumidityBarometerVisibility
1:56 PM
Thu, Feb 11
73 °FSunny.16 mph11%30.14 "Hg10 mi
12:56 PM72 °FSunny.12 mph11%30.15 "Hg10 mi
11:56 AM71 °FSunny.10 mph12%30.19 "Hg10 mi
10:56 AM68 °FSunny.9 mph13%30.22 "Hg10 mi
9:56 AM65 °FSunny.9 mph14%30.24 "Hg10 mi
8:56 AM58 °FSunny.8 mph20%30.26 "Hg10 mi
7:56 AM45 °FSunny.No wind30%30.27 "Hg10 mi
6:56 AM28 °FSunny.No wind53%30.29 "Hg10 mi
5:56 AM25 °FClear.No wind58%30.26 "Hg10 mi
4:56 AM26 °FClear.No wind55%30.21 "Hg10 mi
3:56 AM25 °FClear.5 mph58%30.20 "Hg10 mi
2:56 AM26 °FClear.3 mph55%30.19 "Hg10 mi
1:56 AM26 °FClear.3 mph55%30.20 "Hg10 mi
12:56 AM30 °FClear.5 mph49%30.20 "Hg10 mi
11:56 PM
Wed, Feb 10
30 °FClear.5 mph49%30.22 "Hg10 mi
10:56 PM30 °FClear.5 mph49%30.24 "Hg10 mi
9:56 PM30 °FClear.5 mph47%30.26 "Hg10 mi
8:56 PM32 °FClear.6 mph40%30.28 "Hg10 mi
7:56 PM41 °FClear.3 mph28%30.29 "Hg10 mi
6:56 PM47 °FClear.3 mph22%30.33 "Hg10 mi
5:56 PM54 °FClear.8 mph18%30.30 "Hg10 mi
4:56 PM66 °FSunny.10 mph12%30.26 "Hg10 mi
Weather by CustomWeather, © 2016

See weather overviewHow to use our weather pages